User: anonymous   Login
Location: Hylvaty SDH
(49.9612°N, 16.4057°E)
Time: 02:58:40
(UTC+01:00)
Language:

deb Agena D - Orbit

View from above orbital plane
View from above orbital plane
View from above satellite
View from above satellite

Ground track
Ground track

The orbit data is extracted from the following two-line orbital elements,

1  4737U 70025CL  21055.53897887  .00000897  00000-0  51136-3 0  9996
2  4737  99.0110 340.9267 0031679 217.4337 142.4627 14.12140107572862
Epoch (UTC): 24 February 2021 12:56:07
Eccentricity: 0.0031679
inclination: 99.0110°
perigee height: 829 km
apogee height: 875 km
right ascension of ascending node: 340.9267°
argument of perigee: 217.4337°
revolutions per day: 14.12140107
mean anomaly at epoch: 142.4627°
orbit number at epoch: 57286

The dashed part of the orbit path shows where the satellite is in the earth's shadow,  

DLR